Geneva, Switzerland

5:58 PM CET on February 12, 2016 (GMT +0100)
Cointrin

Weather History for LSGG - January, 2013

Change the Weather History Date:

Wednesday, January 9, 2013

  Actual Average Record
Temperature  
Mean Temperature 32 °F -  
Max Temperature 34 °F 39 °F 57 °F (2005)
Min Temperature 30 °F 29 °F 21 °F (2002)
Degree Days  
Heating Degree Days 33    
Moisture  
Dew Point 31 °F    
Average Humidity 94    
Maximum Humidity 100    
Minimum Humidity 84    
Precipitation  
Precipitation 0.00 in 0.10 in - ()
Sea Level Pressure  
Sea Level Pressure 30.21 in    
Wind  
Wind Speed 2 mph ()    
Max Wind Speed 5 mph    
Max Gust Speed -    
Visibility 1.7 miles    
Events Fog    
Averages and records for this station are not official NWS values.
T = Trace of Precipitation, MM = Missing Value Source: Averaged Metar Reports

Daily Weather History Graph

Daily Weather History Graph

Search for Another Location

Airport or City:

Trip Planner

Search our weather history database for the weather conditions in past years. The results will help you decide how hot, cold, wet, or windy it might be!

Date:

Astronomy

Jan. 09, 2013 Rise Set
Actual Time 8:17 AM CET 5:08 PM CET
Civil Twilight 7:42 AM CET 5:42 PM CET
Nautical Twilight 7:05 AM CET 6:20 PM CET
Astronomical Twilight 6:29 AM CET 6:56 PM CET
Moon 5:39 AM CET (1/9) 2:53 PM CET (1/9)
Length of Visible Light 9h 59m
Length of Day
8h 51m
Waning Crescent, 8% of the Moon is Illuminated
Jan 9
Waning Crescent
Jan 11
New
Jan 19
First Quarter
Jan 27
Full
Feb 3
Last Quarter

Hourly Weather History & Observations

Time (CET) Temp. Windchill Dew Point Humidity Pressure Visibility Wind Dir Wind Speed Gust Speed Precip Events Conditions
12:00 AM 34 °F - 33 °F 93% 30.37 in - NW 1.2 mph - -  
12:20 AM 33.8 °F 30.8 °F 32.0 °F 93% 30.30 in - SSE 3.5 mph - N/A   Overcast
12:50 AM 33.8 °F - 32.0 °F 93% 30.30 in 2.2 mi Variable 2.3 mph - N/A   Overcast
1:00 AM 33 °F - 32 °F 96% 30.36 in 2 mi NNE 2.3 mph - -   Mist
1:20 AM 32.0 °F 28.7 °F 32.0 °F 100% 30.27 in 1.2 mi Variable 3.5 mph - N/A   Overcast
1:50 AM 32.0 °F - 32.0 °F 100% 30.27 in 1.1 mi Variable 1.2 mph - N/A Fog Overcast
2:00 AM 33 °F - 32 °F 93% 30.36 in - East 3.5 mph - -  
2:50 AM 32.0 °F - 32.0 °F 100% 30.27 in 0.7 mi NE 2.3 mph - N/A Fog Patches of Fog
3:00 AM 32 °F - 32 °F 99% 30.36 in - NNW 1.2 mph - -  
3:20 AM 32.0 °F - 32.0 °F 100% 30.27 in 0.7 mi West 1.2 mph - N/A Fog Patches of Fog
3:50 AM 32.0 °F - 32.0 °F 100% 30.27 in 0.5 mi Variable 2.3 mph - N/A Fog Light Freezing Fog
4:20 AM 32.0 °F - 32.0 °F 100% 30.27 in 0.5 mi Variable 2.3 mph - N/A Fog Light Freezing Fog
4:50 AM 32.0 °F 28.7 °F 32.0 °F 100% 30.24 in 0.7 mi Variable 3.5 mph - N/A Fog Patches of Fog
5:00 AM 31 °F - 31 °F 97% 30.33 in - West 2.3 mph - -  
5:20 AM 32.0 °F - 32.0 °F 100% 30.24 in 0.8 mi Variable 1.2 mph - N/A Fog Overcast
5:50 AM 30.2 °F - 30.2 °F 100% 30.24 in 1.1 mi Variable 2.3 mph - N/A   Overcast
6:00 AM 31 °F - 30 °F 96% 30.32 in - North 1.2 mph - -  
6:20 AM 30.2 °F - 30.2 °F 100% 30.24 in 1.4 mi East 2.3 mph - N/A Fog Fog
6:50 AM 30.2 °F - 30.2 °F 100% 30.24 in 1.4 mi North 1.2 mph - N/A Fog Fog
7:00 AM 31 °F - 30 °F 93% 30.31 in 1 mi North 2.3 mph - - Fog Light Fog
7:20 AM 30.2 °F - 30.2 °F 100% 30.24 in 1.6 mi North 1.2 mph - N/A Fog Fog
7:50 AM 30.2 °F 26.7 °F 30.2 °F 100% 30.24 in 1.2 mi West 3.5 mph - N/A Fog Fog
8:00 AM 31 °F - 30 °F 93% 30.31 in - WNW 2.3 mph - -  
8:20 AM 30.2 °F 26.7 °F 30.2 °F 100% 30.24 in 1.4 mi WNW 3.5 mph - N/A Fog Fog
8:50 AM 30.2 °F 26.7 °F 30.2 °F 100% 30.24 in 1.2 mi WNW 3.5 mph - N/A Fog Fog
9:00 AM 31 °F - 29 °F 90% 30.32 in - NNW 3.5 mph - -  
9:20 AM 30.2 °F 26.7 °F 30.2 °F 100% 30.24 in 1.4 mi WNW 3.5 mph - N/A Fog Fog
9:50 AM 30.2 °F 26.7 °F 30.2 °F 100% 30.24 in 1.4 mi WNW 3.5 mph - N/A   Overcast
10:20 AM 30.2 °F 26.7 °F 30.2 °F 100% 30.24 in 1.1 mi WNW 3.5 mph - N/A   Overcast
10:50 AM 32.0 °F 28.7 °F 30.2 °F 93% 30.24 in 1.4 mi West 3.5 mph - N/A Fog Fog
11:00 AM 32 °F - 30 °F 87% 30.30 in - NNW 2.3 mph - -  
11:20 AM 32.0 °F - 30.2 °F 93% 30.21 in 1.5 mi West 1.2 mph - N/A Fog Fog
11:50 AM 32.0 °F 28.7 °F 30.2 °F 93% 30.21 in 1.6 mi West 3.5 mph - N/A   Overcast
12:00 PM 32 °F - 30 °F 87% 30.28 in - WNW 2.3 mph - -  
12:20 PM 32.0 °F 28.7 °F 30.2 °F 93% 30.18 in 1.7 mi WNW 3.5 mph - N/A   Overcast
12:50 PM 32.0 °F 28.7 °F 30.2 °F 93% 30.18 in 1.8 mi West 3.5 mph - N/A   Overcast
1:00 PM 33 °F - 30 °F 84% 30.25 in 2 mi West 3.5 mph - -   Haze
1:20 PM 32.0 °F 28.7 °F 30.2 °F 93% 30.15 in 1.8 mi West 3.5 mph - N/A   Overcast
1:50 PM 32.0 °F 28.7 °F 30.2 °F 93% 30.15 in 1.9 mi WNW 3.5 mph - N/A   Overcast
2:00 PM 33 °F - 30 °F 85% 30.22 in - West 2.3 mph - -  
2:20 PM 32.0 °F 28.7 °F 30.2 °F 93% 30.15 in 1.9 mi WNW 3.5 mph - N/A   Overcast
2:50 PM 33.8 °F - 30.2 °F 87% 30.12 in 2.2 mi West 2.3 mph - N/A   Overcast
3:00 PM 33 °F - 30 °F 86% 30.20 in - WNW 1.2 mph - -  
3:20 PM 33.8 °F - 30.2 °F 87% 30.12 in - Variable 2.3 mph - N/A   Overcast
3:50 PM 33.8 °F - 30.2 °F 87% 30.12 in - Variable 2.3 mph - N/A   Overcast
4:20 PM 33.8 °F - 30.2 °F 87% 30.12 in - Variable 2.3 mph - N/A   Mostly Cloudy
4:50 PM 33.8 °F - 30.2 °F 87% 30.12 in - Variable 2.3 mph - N/A   Overcast
5:00 PM 33 °F - 31 °F 87% 30.19 in - NE 3.5 mph - -  
5:20 PM 33.8 °F - 30.2 °F 87% 30.12 in 2.2 mi Variable 2.3 mph - N/A   Overcast
5:50 PM 33.8 °F - 30.2 °F 87% 30.12 in 2.8 mi Variable 2.3 mph - N/A   Overcast
6:00 PM 33 °F - 30 °F 86% 30.19 in - NNW 2.3 mph - -  
6:20 PM 33.8 °F - 30.2 °F 87% 30.12 in - Variable 2.3 mph - N/A   Overcast
6:50 PM 33.8 °F - 30.2 °F 87% 30.12 in 3.1 mi Variable 2.3 mph - N/A   Overcast
7:00 PM 33 °F - 31 °F 87% 30.19 in 3 mi North 1.2 mph - -   Mist
7:20 PM 33.8 °F - 30.2 °F 87% 30.12 in 3.1 mi Variable 2.3 mph - N/A   Overcast
7:50 PM 32.0 °F - 32.0 °F 100% 30.09 in 3.1 mi Variable 2.3 mph - N/A   Overcast
8:00 PM 33 °F - 30 °F 85% 30.18 in - West 3.5 mph - -  
8:20 PM 32.0 °F 28.7 °F 30.2 °F 93% 30.09 in - West 3.5 mph - N/A   Overcast
8:50 PM 32.0 °F - 30.2 °F 93% 30.09 in 2.8 mi Variable 2.3 mph - N/A   Overcast
9:00 PM 32 °F - 30 °F 91% 30.17 in - WNW 2.3 mph - -  
9:20 PM 32.0 °F 28.7 °F 30.2 °F 93% 30.09 in - Variable 3.5 mph - N/A   Overcast
9:50 PM 32.0 °F 28.7 °F 30.2 °F 93% 30.09 in 2.2 mi West 3.5 mph - N/A   Overcast
10:20 PM 32.0 °F 28.7 °F 30.2 °F 93% 30.09 in 2.2 mi Variable 3.5 mph - N/A   Overcast
10:50 PM 30.2 °F 26.7 °F 30.2 °F 100% 30.09 in 2.2 mi SW 3.5 mph - N/A   Overcast
11:00 PM 31 °F - 29 °F 92% 30.17 in - SSW 4.6 mph - -  
11:20 PM 30.2 °F 26.7 °F 30.2 °F 100% 30.09 in 1.9 mi SW 3.5 mph - N/A   Overcast
11:50 PM 30.2 °F 26.7 °F 30.2 °F 100% 30.09 in 1.6 mi West 3.5 mph - N/A   Overcast